    Orbital elements:
    2023 RV12                                                Earth MOID = 0.0042 AU
    Epoch 2023 Sept. 13.0 TT = JDT 2460200.5                Veres                   
    M 190.95074              (2000.0)            P               Q                  
    n   1.51420658     Peri.  215.65088     -0.96865052     -0.24824548             
    a   0.7510681      Node   309.97257     +0.23070671     -0.88470515             
    e   0.3789018      Incl.    0.71066     +0.09214435     -0.39455162             
    P   0.65           H   26.16          G   0.15           U   8                  
    Residuals in seconds of arc
    230915 L51  0.1+  0.4-    230915 033  0.1-  0.1-    230915 M21  0.4-  0.2-
    230915 L51  0.3+  0.9-    230915 033  0.1+  0.1-    230915 595  0.2+  0.0
    230915 L51  0.6-  0.7-    230915 246  1.5+  2.8-    230915 595  0.2-  0.3-
    230915 033  0.1-  0.4-    230915 104  0.2+  0.1-    230915 595  0.0   0.0
    230915 033  0.1-  0.5-    230915 104  0.1-  0.3-    230915 B72  0.2-  0.3+
    230915 033  0.2-  0.3-    230915 J95  0.1-  0.5-    230915 B72  0.7-  0.2+
    230915 X09  1.1-  2.1+    230915 J95  0.1+  0.2-    230916 B72  0.8-  0.1+
    230915 X09  1.8-  2.7+    230915 J95  0.1-  0.2+    230916 K74  0.6-  0.1-
    230915 H21  0.5-  0.5+    230915 J95  0.2+  0.0     230916 K74  0.1-  0.2+
    230915 H21  0.4-  0.8+    230915 G34  0.6+  0.7-    230916 958  0.3+  0.9-
    230915 H21  0.3-  0.8+    230915 G34  0.1-  0.2+    230916 958  1.1-  0.9+
    230915 H21  0.6-  0.6+    230915 G02  0.1-  0.4+    230916 958  0.5-  0.9+
    230915 G96  0.1-  0.2-    230915 G02  0.1+  0.2-    230916 033  1.3-  0.3-
    230915 G96  0.0   0.2-    230915 K83  0.0   0.1-    230916 033  1.2-  0.0
    230915 G96  0.2+  0.2-    230915 K83  0.1+  0.1+    230916 033  1.3-  0.4+
    230915 G96  0.9+  0.3-    230915 G02  1.6-  0.2-    230916 033  0.9-  0.0
    230915 A17  0.4+  0.3+    230915 M49  0.5-  0.4+    230916 703  0.5-  1.3-
    230915 A17  0.1-  0.6+    230915 M49  0.5-  0.5+    230916 703  0.1+  0.0
    230915 246  9.5-  2.5-    230915 M49  0.7-  0.3+    230916 703  0.9-  0.2+
    230915 A17  0.1-  0.1+    230915 K63  0.6-  0.2-    230916 703  2.4+  2.2+
    230915 104  0.3-  0.3-    230915 K63  0.2-  0.4-
    230915 033  0.0   0.0     230915 K63  0.0   0.6-
    
    Ephemeris:
    2023 RV12                a,e,i = 0.75, 0.38, 1                   q = 0.4665
    Date    TT    R. A. (2000) Decl.     Delta      r    Elong.  Phase     V
    2023 08 17    03 33 03.8 +21 11 19   0.1294  1.0152    87.5    85.2    24.7
    ...
    2023 09 01    03 09 17.1 +22 54 01   0.07764 1.0344   106.8    69.1    23.1
    ...
    2023 09 09    02 27 28.4 +24 18 15   0.04937 1.0351   122.9    54.8    21.7
    ...
    2023 09 15    00 59 32.8 +24 04 45   0.03073 1.0312   144.8    34.2    20.1
    2023 09 16    00 34 23.3 +23 21 39   0.02830 1.0302   149.7    29.5    19.8
    2023 09 17    00 05 14.0 +22 10 56   0.02621 1.0290   154.3    25.1    19.5
    ...
    2023 09 23    20 38 10.8 +04 19 01   0.02523 1.0201   129.9    49.0    20.0
    ...
    2023 10 01    18 27 09.1 -10 48 20   0.04670 1.0022    89.6    87.7    22.6
    ...
    2023 10 16    17 21 29.3 -16 49 52   0.09767 0.9504    58.9   116.1    25.6
    
    M. P. C. Staff               (C) Copyright 2023 MPC           M.P.E.C. 2023-S02
    


    Read MPEC 2023-S01 Read MPEC 2023-S03


    MPEC number:

    Enter an MPEC number in one of the following forms:

    • 1997-B01 (the full form)
    • J97B01 (the packed version of the full form)
    • B01 (the abbreviated form)